DECAYED
Showing default

BARRY-1, 58338 (Decayed)

Orbit data source: Space-Track

BARRY-1, 58338 was a payload satellite owned by Rogue Space (US) in LEO that was launched on Sat, 11 Nov 2023 UTC via an FALCON 9 launch vehicle from the Air Force Western Test Range (AFWTR). Payload-class satellites include a variety of spacecraft equipped with specific instruments for various scientific and technological missions. These include communications satellites like Starlink; space stations such as the ISS; scientific satellites like the Hubble; Earth observation satellites from companies like Planet Labs, Umbra, and HawkEye 360; GPS; miniature CubeSats for education and research; and military/defense satellites.

Not visible in the next 10 days
Identifier
58338, 2023-174CL
Orbit
Decayed
Country
Flag of USUS
Related business
Manufacturer
Rogue Space
Mission
Decayed Commercial Technology
Bus & Motor
CUBESAT 3U, Unknown motor
Mass
5 kg wet, 5 kg dry
Launch date (UTC)
2023-11-11 (3 years ago)
Launch vehicle
FALCON 9
Launch site
Air Force Western Test Range (AFWTR)
Object type
Payload
Rocket body
Debris
Shape & HBR
Box, 1.0 m
Radar Cross Section
0.080 m², Medium (>0.1 m² and < 1m²)

Expand to show TLE details & history
Last TLE update: 1 year ago

TLE from 1 year ago
0 BARRY-1
1 58338U 23174CL  25097.53640086  .12059348  25504-5  52125-3 0  9990
2 58338  97.3813 186.4667 0013389 266.3578  93.6192 16.42144632 79244
Epoch: 2025-04-07T12:52Z
TLE epoch observation values (Epoch: 2025-04-07T12:52:25.034Z)
Latitude
0.00004°
Longitude
157.31197°
Altitude
163.923 km
Speed
7.807 km/s
True Right ascension
12h 25m 52s
True Declination
0° 00' 00"
Sunlit
Object was in full shadow at epoch
Visualization orbit readout
Latitude
Unknown
Longitude
Unknown
Altitude
Unknown
Speed
Unknown
Apparent Right ascension
Unknown
Apparent Declination
Unknown
Sunlit
N/A
Visualization observer readout
Local Sidereal Time
07:04:09
Azimuth
Unknown
Elevation
Unknown
Doppler factor
Unknown
Orbital elements
Apogee altitude
165.657 km
Perigee altitude
148.158 km
Semi-major axis
6,535.045 km
Eccentricity
0.00134
Inclination
97.3813°
RAAN
186.4667°
Arg. of periapsis
266.3578°
True anomaly
93.7723°
Mean anomaly
93.6192°
Eccentric anomaly
93.69575°
Mean motion
4.10838 °/min
Orbital period
87.63 mins
BSTAR
0.00052125
Loading maneuver chart data...
Computing Atmospheric mass density...
Loading historical data...
Loading historical data...
Loading historical data...
Loading historical data...
Loading historical data...
Loading historical data...
Loading historical data...

Documentation

Showing up to 5 results
|